Probability
0 0 0 0 0 0 0 0 0 0 0 0 0 0 0 0 0 0 0 0 0 0 0 0 0 0 0 0 0 0 0 0 0 0 0 0 0 0
0 0 0 0 0 0 0 0 0 0 0 0 0 0 0 0 0 0 0 0 0 0 0 0 0 0 0 0 0 0 0 0 0 0 0 0 0 0
0 0 0 0 0 0 0 0 0 0 0 0 0 0 0 0 0 0 0 0 0 0 0 0 0 0 0 0 0 0 0 0 0 0 0 0 0 0
0 0 0 0 0 0 0 0 0 0 0 0 0 0 0 0 0 0 0 0 0 0 0 0 0 0 0 0 0 0 0 0 0 0 0 0 0 0
0 0 0 0 0 0 0 0 0 0 0 0 0 0 0 0 0 0 0 0 0 0 0 0 0 0 0 0 0 0 0 0 0 0 0 0 0 0
0 0 0 0 0 0 0 0 0 0 0 0 0 0 0 0 0 0 0 0 0 0 0 0 0 0 0 0 0 0 0 0 0 0 0 0 0 0
0 0 0 0 0 0 0 0 0 0 0 0 0 0 0 0 0 0 0 0 0 0 0 0 0 0 0 0 0 0 0 0 0 0 0 0 0 0
0 0 0 0 0 0 0 0 0 0 0 0 0 0 0 0 0 0 0 0 0 0 0 0 0 0 0 0 0 0 0 0 0 0 0 0 0 0
0 0 0 0 0 0 0 0 0 0 0 0 0 0 0 0 0 0 0 0 0 0 0 0 0 0 0 0 0 0 0 0 0 0 0 0 0 0
0 0 0 0 0 0 0 0 0 0 0 0 0 0 0 0 0 0 0 0 0 0 0 0 0 0 0 0 0 0 0 0 0 0 0 0 0 0
0 0 0 0 0 0 0 0 0 0 0 0 0 0 0 0 0 0 0 0 0 0 0 0 0 0 0 0 0 0 0 0 0 0 0 0 0 0
0 0 0 0 0 0 0 0 0 0 0 0 0 0 0 0 0 0 0 0 0 0 0 0 0 0 0 0 0 0 0 0 0 0 0 0 0 0
0 0 0 0 0 0 0 0 0 0 0 0 0 0 0 0 0 0 0 0 0 0 0 0 0 0 0 0 0 0 0 0 0 0 0 0 0 0
0 0 0 0 0 0 0 0 0 0 0 0 0 0 0 0 0 0 0 0 0 0 0 0 0 0 0 0 0 0 0 0 0 0 0 0 0 0
0 0 0 0 0 0 0 0 0 0 0 0 0 0 0 0 0 0 0 0 0 0 0 0 0 0 0 0 0 0 0 0 0 0 0 0 0 0
0 0 0 0 0 0 0 0 0 0 0 0 0 0 0 0 0 0 0 0 0 0 0 0 0 0 0 0 0 0 0 0 0 0 0 0 0 0
0 0 0 0 0 0 0 0 0 0 0 0 0 0 0 0 0 0 0 0 0 0 0 0 0 0 0 0 0 0 0 0 0 0 0 0 0 0
0 0 0 0 0 0 0 0 0 0 0 0 0 0 0 0 0 0 0 0 0 0 0 0 0 0 0 0 0 0 0 0 0 0 0 0 0 0
0 0 0 0 0 0 0 0 0 0 0 0 0 0 0 0 0 0 0 0 0 0 0 0 0 0 0 0 0 0 0 0 0 0 0 0 0 0
0 0 0 0 0 0 0 0 0 0 0 0 0 0 0 0 0 0 0 0 0 0 0 0 0 0 0 0 0 0 0 0 0 0 0 0 0 0
0 0 0 0 0 0 0 0 0 0 0 0 0 0 0 0 0 0 0 0 0 0 0 0 0 0 0 0 0 0 0 0 0 0 0 0 0 0
0 0 0 0 0 0 0 0 0 0 0 0 0 0 0 0 0 0 0 0 0 0 0 0 0 0 0 0 0 0 0 0 0 0 0 0 0 0
0 0 0 0 0 0 0 0 0 0 0 0 0 0 0 0 0 0 0 0 0 0 0 0 0 0 0 0 0 0 0 0 0 0 0 0 0 0
Height
5779 5776 5773 5770 5767 5764 5761 5757 5753 5748 5743 5739 5735 5730 5725 5720 5715 5710 5705 5700 5695 5689 5684 5679 5674 5669 5664 5660 5655 5652 5649 5646 5644 5642 5641 5639 5639 5639
5767 5765 5762 5758 5755 5751 5748 5744 5740 5735 5730 5725 5721 5716 5711 5706 5701 5696 5691 5685 5680 5675 5669 5664 5659 5654 5649 5644 5639 5636 5633 5630 5627 5624 5622 5620 5620 5619
5756 5753 5750 5746 5743 5739 5735 5731 5727 5722 5717 5712 5707 5703 5698 5693 5687 5682 5676 5671 5666 5660 5655 5650 5644 5639 5634 5629 5625 5621 5618 5614 5611 5608 5606 5604 5602 5602
5745 5741 5738 5734 5731 5727 5723 5718 5714 5709 5705 5700 5695 5690 5685 5680 5674 5669 5663 5658 5653 5647 5641 5636 5631 5626 5621 5617 5612 5608 5604 5601 5598 5595 5592 5591 5589 5587
5733 5730 5727 5723 5719 5715 5711 5706 5702 5698 5693 5688 5683 5678 5673 5668 5662 5657 5652 5646 5641 5635 5630 5625 5620 5615 5610 5606 5601 5597 5593 5589 5586 5583 5580 5578 5576 5574
5722 5719 5716 5712 5708 5704 5700 5696 5691 5687 5682 5678 5673 5668 5662 5657 5652 5647 5642 5636 5631 5625 5620 5615 5611 5606 5601 5597 5593 5588 5584 5579 5575 5572 5570 5567 5565 5563
5712 5709 5706 5702 5698 5695 5691 5686 5682 5677 5673 5669 5664 5659 5653 5648 5644 5639 5633 5628 5622 5617 5613 5608 5603 5598 5594 5589 5584 5580 5576 5571 5567 5564 5560 5558 5555 5553
5703 5700 5696 5693 5690 5686 5682 5678 5674 5670 5666 5661 5656 5651 5646 5642 5637 5632 5626 5622 5617 5612 5607 5602 5597 5593 5588 5583 5578 5574 5569 5565 5560 5557 5553 5550 5547 5544
5694 5691 5688 5685 5682 5679 5675 5671 5668 5664 5660 5656 5651 5646 5641 5637 5632 5627 5622 5617 5612 5608 5603 5598 5593 5588 5583 5578 5573 5569 5564 5559 5555 5551 5547 5543 5540 5537
5687 5684 5681 5679 5676 5673 5670 5666 5663 5659 5655 5650 5646 5642 5638 5633 5628 5624 5619 5614 5609 5604 5599 5594 5589 5584 5579 5574 5570 5565 5560 5555 5550 5546 5542 5538 5534 5530
5680 5678 5676 5673 5671 5668 5665 5661 5658 5654 5650 5646 5642 5638 5634 5629 5625 5620 5616 5611 5606 5601 5597 5592 5587 5582 5577 5572 5567 5562 5557 5552 5547 5542 5537 5533 5528 5524
5675 5673 5671 5668 5666 5663 5660 5657 5653 5649 5646 5642 5638 5634 5630 5626 5622 5618 5613 5609 5604 5599 5595 5590 5585 5580 5576 5571 5565 5560 5555 5549 5544 5538 5533 5528 5523 5518
5670 5668 5666 5664 5662 5659 5656 5653 5649 5646 5642 5639 5635 5631 5627 5624 5620 5615 5611 5607 5602 5597 5593 5588 5583 5578 5573 5569 5564 5558 5553 5547 5541 5535 5529 5524 5519 5514
5666 5665 5663 5661 5658 5655 5652 5649 5646 5642 5639 5636 5632 5628 5625 5621 5617 5613 5609 5604 5600 5596 5591 5587 5582 5577 5573 5568 5563 5557 5551 5545 5538 5532 5526 5520 5515 5510
5663 5662 5660 5657 5655 5652 5649 5646 5643 5639 5636 5632 5629 5625 5622 5618 5614 5610 5606 5602 5599 5595 5590 5586 5581 5577 5572 5567 5562 5556 5550 5544 5537 5531 5524 5518 5513 5507
5660 5659 5657 5654 5652 5649 5646 5643 5640 5636 5633 5630 5626 5623 5619 5616 5612 5608 5605 5601 5597 5594 5590 5585 5581 5577 5572 5567 5561 5555 5549 5543 5537 5530 5524 5518 5512 5505
5657 5656 5654 5651 5649 5646 5643 5640 5637 5633 5630 5626 5623 5620 5616 5613 5610 5607 5603 5600 5596 5593 5589 5585 5581 5576 5572 5567 5561 5556 5550 5544 5537 5531 5525 5518 5512 5506
5655 5653 5651 5648 5646 5644 5641 5637 5634 5631 5627 5624 5620 5617 5614 5611 5608 5605 5602 5599 5596 5592 5589 5585 5581 5577 5572 5568 5563 5557 5551 5545 5539 5533 5527 5520 5514 5509
5652 5650 5648 5646 5644 5641 5638 5635 5631 5628 5624 5621 5618 5615 5612 5609 5607 5604 5601 5598 5595 5592 5589 5585 5581 5577 5573 5569 5564 5558 5553 5547 5542 5536 5530 5524 5518 5512
5650 5648 5646 5644 5641 5638 5635 5632 5629 5625 5622 5619 5616 5613 5611 5608 5605 5603 5600 5598 5595 5592 5589 5586 5582 5578 5575 5570 5565 5560 5555 5550 5545 5539 5534 5528 5522 5517
5649 5646 5644 5642 5639 5636 5633 5630 5627 5623 5620 5617 5615 5612 5610 5607 5605 5602 5600 5598 5595 5593 5590 5587 5583 5580 5576 5572 5568 5563 5558 5553 5548 5543 5538 5532 5527 5522
5647 5645 5643 5640 5637 5634 5631 5628 5625 5622 5619 5616 5614 5611 5609 5607 5605 5602 5600 5598 5596 5593 5591 5588 5585 5581 5578 5574 5570 5566 5562 5557 5552 5547 5542 5538 5533 5528
5646 5644 5641 5639 5636 5633 5630 5627 5624 5621 5619 5616 5613 5611 5609 5607 5605 5603 5601 5599 5596 5594 5592 5589 5587 5584 5580 5577 5573 5569 5565 5561 5557 5552 5548 5543 5538 5534
Wind_Speed
39 41 42 43 44 45 46 46 47 49 50 51 52 53 54 55 56 56 56 56 56 56 56 56 57 57 58 59 60 60 60 61 62 65 67 68 68 68
41 42 44 45 45 45 46 46 47 49 50 52 52 53 53 54 54 53 53 53 54 55 56 56 56 56 56 56 55 55 55 56 56 58 59 61 63 63
42 43 43 44 44 45 45 47 47 48 49 50 50 50 50 50 50 50 50 51 52 52 53 53 52 52 52 51 51 51 51 51 51 51 52 52 53 55
41 41 42 43 43 44 45 46 46 46 46 46 47 47 47 47 47 47 47 48 48 48 48 47 46 46 46 46 46 46 45 45 44 44 44 44 44 45
41 41 41 42 42 42 43 43 42 42 42 42 42 42 42 43 43 43 43 43 42 41 41 41 40 40 40 40 40 40 40 39 39 39 38 38 38 39
39 39 39 40 39 38 38 37 37 37 36 36 37 37 38 38 38 38 38 39 38 37 37 36 36 35 34 34 33 33 33 33 33 34 34 34 35 35
37 37 36 36 35 34 34 34 33 33 33 34 34 34 34 34 34 34 34 34 32 31 31 31 30 30 30 30 29 29 29 29 29 30 30 30 30 30
34 33 32 31 30 30 30 30 30 30 30 30 30 29 29 29 29 29 28 27 26 26 26 27 26 26 25 25 25 25 25 25 26 26 26 26 26 27
30 29 28 27 27 27 26 26 26 26 26 26 25 26 25 25 25 24 24 24 23 23 24 24 23 22 22 22 22 22 22 22 22 22 22 23 23 24
27 25 24 23 23 23 23 23 24 24 24 23 23 23 23 22 22 22 22 22 22 22 22 22 21 21 21 20 20 20 21 21 21 21 21 21 22 22
22 20 20 20 21 21 22 22 22 22 22 22 22 21 21 20 21 21 21 21 21 22 21 21 20 20 20 19 20 20 20 20 20 20 20 21 22 22
19 18 18 19 19 20 20 21 21 21 21 21 21 20 20 20 20 21 20 20 20 20 20 20 19 18 18 19 19 20 21 21 21 21 21 22 22 22
16 16 16 16 17 18 19 20 20 20 20 20 19 19 19 19 20 20 20 19 20 20 20 20 19 19 19 19 20 21 22 22 23 22 22 22 22 21
14 14 15 15 16 17 18 19 19 19 19 19 19 19 19 19 19 19 19 19 19 19 19 19 19 19 19 20 21 22 23 24 24 24 23 22 22 21
13 13 14 15 16 17 17 18 18 19 19 19 18 18 18 18 18 18 18 18 18 18 19 19 19 19 20 21 22 23 24 25 25 24 23 22 22 21
12 13 14 15 15 16 16 17 18 18 18 18 18 18 17 17 17 17 17 17 17 17 18 19 19 20 21 22 23 23 24 24 25 24 24 23 23 21
11 12 14 14 15 15 16 17 17 18 18 17 17 17 16 16 16 16 16 16 16 16 17 18 19 20 21 22 23 24 24 24 25 25 25 25 24 22
11 12 13 13 14 15 15 16 17 17 17 17 16 16 15 15 14 14 15 15 15 16 16 17 18 19 20 22 23 24 24 24 24 25 26 25 25 24
11 11 12 13 14 14 15 16 17 17 17 16 15 15 14 13 13 13 14 14 15 15 16 16 17 18 19 21 22 23 24 24 24 25 26 26 25 24
10 11 12 13 13 14 15 16 16 16 16 15 14 14 13 12 12 12 12 13 14 14 15 15 16 18 19 21 22 22 23 23 24 25 26 27 27 26
10 11 12 13 14 14 15 15 15 15 15 14 13 13 12 12 11 11 12 13 13 13 14 14 16 17 18 20 21 21 22 23 24 25 26 27 27 27
10 11 12 13 14 14 14 14 14 14 13 13 12 12 11 11 11 11 11 12 12 13 13 14 14 16 17 19 20 21 21 22 23 24 25 26 26 26
10 11 12 13 14 14 14 14 14 13 12 12 11 10 11 10 10 11 11 12 12 12 12 13 14 15 16 17 19 20 21 22 23 24 25 25 26 27
Wind_Direction
288 288 288 288 289 289 288 288 288 287 287 286 286 286 286 286 285 285 285 284 284 283 283 283 283 282 282 281 280 279 278 277 274 272 271 270 268 266
288 289 288 289 290 290 289 289 288 288 287 287 287 286 287 287 287 287 287 286 286 285 285 285 285 285 285 284 283 282 281 280 278 276 273 272 270 269
289 289 290 290 290 289 289 289 289 289 288 288 288 288 289 289 289 289 289 288 288 287 287 287 287 287 286 286 285 284 284 282 281 279 277 274 273 271
290 290 290 291 291 290 290 290 290 290 290 290 290 291 291 291 291 291 292 292 292 291 291 291 290 290 289 289 289 288 287 286 284 283 280 278 276 274
290 291 291 291 291 291 291 292 292 292 292 293 293 294 294 295 295 296 296 296 296 296 295 295 294 294 293 293 293 292 290 289 287 285 283 281 279 276
290 290 292 293 293 293 294 295 296 297 298 298 298 299 299 299 299 300 301 301 300 300 300 301 300 299 299 299 299 299 298 295 292 289 287 284 281 279
290 290 292 293 294 296 297 299 300 301 302 303 303 304 304 304 304 305 305 306 306 306 307 307 307 306 305 305 305 303 302 300 298 295 291 288 285 282
291 292 293 295 297 299 301 302 304 306 308 309 310 312 313 313 313 313 314 315 314 314 314 314 314 312 311 310 309 308 308 307 304 301 297 294 291 288
292 294 296 297 300 303 305 307 309 311 313 314 316 318 319 320 321 322 323 323 323 322 323 322 321 319 319 318 318 318 317 315 312 308 306 303 299 296
293 294 296 299 303 306 309 311 312 314 316 318 319 321 322 324 326 328 330 331 331 331 330 329 328 328 329 329 329 328 326 324 320 317 314 311 308 305
292 294 297 300 304 309 312 314 315 317 318 319 320 322 325 328 332 334 334 335 336 335 335 335 335 335 336 337 337 337 336 334 330 326 322 318 314 311
293 295 298 303 308 312 314 316 318 320 322 322 324 326 328 331 333 334 336 337 339 339 339 340 341 342 342 343 345 345 343 340 336 333 329 325 322 318
295 298 302 307 312 315 317 319 321 322 323 324 326 327 328 331 333 335 337 340 342 343 345 346 347 348 349 349 349 349 348 346 343 339 335 332 329 326
298 302 307 311 315 317 319 321 323 324 324 325 326 327 329 331 334 336 339 341 345 348 349 351 352 353 353 354 354 353 352 351 349 347 344 341 339 336
300 304 308 314 318 319 321 325 327 327 327 327 328 328 330 332 334 337 341 344 347 349 351 353 355 355 355 356 356 355 355 355 355 354 353 351 349 346
301 307 312 317 320 322 326 327 328 327 327 327 328 330 332 335 338 340 343 345 347 349 350 353 355 357 357 357 357 358 358 1 2 3 3 2 1 0
305 311 315 318 322 327 328 327 328 329 330 330 330 331 333 336 339 342 345 347 349 350 351 353 355 356 359 0 2 3 4 6 7 9 10 11 11 13
313 316 319 321 324 327 327 328 330 332 333 333 334 334 335 337 341 344 347 350 352 352 354 356 357 0 3 5 6 8 10 11 13 15 16 17 20 23
319 322 324 326 328 330 331 332 333 335 336 336 337 338 339 341 344 346 349 352 354 355 357 360 2 5 7 8 10 13 15 17 19 22 23 25 27 30
326 328 329 330 331 333 335 337 338 339 340 341 342 343 344 345 348 351 353 356 357 359 2 5 6 8 10 12 15 17 18 20 23 26 27 29 31 33
334 334 333 334 336 339 342 343 343 344 345 346 346 347 349 351 355 358 1 1 1 4 6 8 10 12 15 17 19 20 22 24 27 29 30 32 33 35
339 339 340 342 343 345 346 347 348 349 350 351 351 354 357 1 4 7 8 7 8 9 11 14 17 19 21 22 24 27 29 31 32 33 34 35 36 38
345 346 347 348 349 351 352 353 354 354 354 356 359 2 6 10 13 14 16 16 17 19 21 24 26 27 29 30 31 33 34 36 37 37 37 38 39 41